EDT,Max TemperatureF,Mean TemperatureF,Min TemperatureF,Max Dew PointF,MeanDew PointF,Min DewpointF,Max Humidity, Mean Humidity, Min Humidity, Max Sea Level PressureIn, Mean Sea Level PressureIn, Min Sea Level PressureIn, Max VisibilityMiles, Mean VisibilityMiles, Min VisibilityMiles, Max Wind SpeedMPH, Mean Wind SpeedMPH, Max Gust SpeedMPH,PrecipitationIn, CloudCover, Events, WindDirDegrees
2013-10-1,78,68,57,60,58,55,93,75,57,30.14,30.09,30.04,10,10,8,10,0,7,0.00,3,,-1
2013-10-2,83,72,60,65,62,59,93,72,51,30.11,30.08,30.06,10,10,10,5,0,10,0.00,1,,140
2013-10-3,82,73,63,68,65,62,100,78,55,30.14,30.10,30.05,10,7,0,10,1,14,T,3,Fog,282
2013-10-4,82,72,62,65,62,60,100,77,54,30.17,30.11,30.08,10,6,1,6,0,10,0.00,1,,-1
2013-10-5,85,75,64,65,63,61,93,72,51,30.11,30.06,29.97,10,10,10,8,1,12,0.00,2,,-1
2013-10-6,84,69,54,64,59,53,93,69,45,29.96,29.88,29.77,10,9,2,16,5,25,0.20,3,Rain,200
2013-10-7,65,58,50,54,48,40,100,70,40,30.14,29.96,29.86,10,7,1,9,3,16,0.43,5,Rain,286
2013-10-8,68,57,46,46,44,42,86,64,42,30.24,30.18,30.14,10,10,10,9,2,18,0.00,0,,50
2013-10-9,74,62,49,49,47,42,86,65,44,30.22,30.17,30.14,10,10,10,5,0,9,0.00,0,,-1
2013-10-10,74,61,48,49,45,43,86,62,38,30.17,30.12,30.06,10,10,10,6,1,12,0.00,0,,330
2013-10-11,77,64,50,53,50,45,96,69,41,30.10,30.05,30.01,10,10,10,8,1,13,0.00,0,,350
2013-10-12,75,65,54,60,56,49,93,77,60,30.14,30.08,30.01,10,10,4,6,1,9,0.00,3,,-1
2013-10-13,71,66,60,60,58,57,90,78,66,30.28,30.21,30.14,10,10,9,7,0,9,0.00,8,,290
2013-10-14,70,65,60,61,59,58,97,84,70,30.30,30.23,30.16,10,7,2,6,1,14,0.00,7,,70
2013-10-15,75,67,58,62,59,57,100,82,64,30.17,30.10,29.99,10,6,0,5,0,8,0.00,3,Fog,320
2013-10-16,65,63,61,61,60,57,100,92,84,30.02,29.98,29.95,10,4,0,6,1,10,0.24,7,Fog-Rain,225
2013-10-17,62,55,47,61,55,46,100,92,83,30.02,29.92,29.85,10,3,0,15,2,22,0.32,7,Fog-Rain,292
2013-10-18,61,53,45,48,45,38,100,73,46,30.10,30.04,29.99,10,5,0,6,0,8,0.00,5,Fog,305
2013-10-19,58,49,40,50,44,39,96,84,72,30.05,29.94,29.88,10,9,2,13,3,23,0.03,5,Rain,276
2013-10-20,60,48,35,42,36,31,93,65,37,30.14,30.08,30.05,10,5,0,6,1,9,0.00,2,Fog,165
2013-10-21,69,55,40,42,38,34,79,57,34,30.10,30.02,29.95,10,10,10,8,2,15,0.00,0,,192
2013-10-22,55,48,40,46,41,33,96,73,50,30.06,29.98,29.87,10,8,3,9,2,14,0.15,5,Rain,280
2013-10-23,45,40,34,43,40,32,96,88,79,30.08,29.87,29.75,10,6,0,14,4,28,0.09,8,Fog-Rain,269
2013-10-24,46,40,33,37,33,29,92,77,62,30.28,30.17,30.06,10,9,4,12,3,20,0.07,8,Rain-Snow,290
2013-10-25,46,39,32,32,29,23,92,69,45,30.47,30.36,30.27,10,7,2,7,1,12,T,5,Snow,270
2013-10-26,52,41,29,30,27,24,85,60,35,30.33,30.18,30.03,10,10,10,12,2,24,0.00,3,,222
2013-10-27,65,53,41,43,38,31,76,60,43,30.11,30.08,30.04,10,10,10,9,2,15,0.00,2,,250
2013-10-28,57,54,51,54,51,44,96,84,71,30.28,30.21,30.10,10,4,0,3,0,5,0.10,8,Fog-Rain,-1
2013-10-29,63,58,53,54,53,51,100,84,67,30.35,30.29,30.21,10,4,0,6,0,9,0.02,7,Fog,140
2013-10-30,68,62,55,61,57,53,100,88,76,30.23,30.17,30.10,10,5,0,9,2,18,0.47,8,Fog-Rain,149
2013-10-31,71,66,61,57,54,52,84,69,53,30.09,29.85,29.52,10,10,8,18,7,36,0.01,4,Rain,189